China Lake, CA

8:17 AM PDT on May 25, 2017 (GMT -0700)
China Lake NAWS

Weather History for KNID - November, 2013

Change the Weather History Date:

Sunday, November 10, 2013

  Actual Average Record
Temperature  
Mean Temperature 54 °F -  
Max Temperature 73 °F 65 °F 82 °F (2016)
Min Temperature 36 °F 39 °F 28 °F (2011)
Degree Days  
Heating Degree Days 10    
Growing Degree Days 4 (Base 50)    
Moisture  
Dew Point 12 °F    
Average Humidity 21    
Maximum Humidity 31    
Minimum Humidity 11    
Precipitation  
Precipitation 0.00 in - - ()
Sea Level Pressure  
Sea Level Pressure 30.15 in    
Wind  
Wind Speed 4 mph (SSW)    
Max Wind Speed 9 mph    
Max Gust Speed -    
Visibility 10 miles    
Events      
Averages and records for this station are not official NWS values.
T = Trace of Precipitation, MM = Missing Value Source: NWS Daily Summary

Daily Weather History Graph

Daily Weather History Graph

Search for Another Location

Airport or City:

Trip Planner

Search our weather history database for the weather conditions in past years. The results will help you decide how hot, cold, wet, or windy it might be!

Date:

Astronomy

Nov. 10, 2013 Rise Set
Actual Time 6:21 AM PST 4:47 PM PST
Civil Twilight 5:55 AM PST 5:13 PM PST
Nautical Twilight 5:24 AM PST 5:44 PM PST
Astronomical Twilight 4:54 AM PST 6:14 PM PST
Moon 12:42 PM PST (11/10) No Moon Set
Length of Visible Light 11h 18m
Length of Day
10h 25m
First Quarter, 56% of the Moon is Illuminated
Nov 10
First Quarter
Nov 17
Full
Nov 25
Last Quarter
Dec 2
New
Dec 9
First Quarter

Hourly Weather History & Observations

Time (PST) Temp. Windchill Dew Point Humidity Pressure Visibility Wind Dir Wind Speed Gust Speed Precip Events Conditions
12:56 AM 42.1 °F 37.7 °F 8.1 °F 25% 30.12 in 10.0 mi SSW 6.9 mph - N/A   Clear
1:56 AM 41.0 °F - 8.1 °F 26% 30.12 in 10.0 mi Calm Calm - N/A   Clear
2:56 AM 39.9 °F 36.7 °F 9.0 °F 28% 30.12 in 10.0 mi SW 4.6 mph - N/A   Clear
3:56 AM 37.9 °F 32.7 °F 9.0 °F 30% 30.13 in 10.0 mi SSW 6.9 mph - N/A   Clear
4:56 AM 36.0 °F 33.3 °F 8.1 °F 31% 30.15 in 10.0 mi NW 3.5 mph - N/A   Clear
5:56 AM 36.0 °F - 6.1 °F 29% 30.17 in 10.0 mi Calm Calm - N/A   Clear
6:56 AM 37.0 °F - 7.0 °F 29% 30.20 in 10.0 mi Calm Calm - N/A   Clear
7:56 AM 46.0 °F - 10.9 °F 24% 30.22 in 10.0 mi Calm Calm - N/A   Clear
8:56 AM 53.1 °F - 12.9 °F 20% 30.21 in 10.0 mi Calm Calm - N/A   Clear
9:56 AM 61.0 °F - 14.0 °F 16% 30.21 in 10.0 mi Calm Calm - N/A   Clear
10:56 AM 66.0 °F - 14.0 °F 13% 30.19 in 10.0 mi Calm Calm - N/A   Clear
11:56 AM 71.1 °F - 15.1 °F 12% 30.15 in 10.0 mi NE 3.5 mph - N/A   Clear
12:56 PM 71.1 °F - 16.0 °F 12% 30.12 in 10.0 mi Calm Calm - N/A   Clear
1:56 PM 73.0 °F - 16.0 °F 11% 30.11 in 10.0 mi Calm Calm - N/A   Clear
2:56 PM 73.9 °F - 17.1 °F 12% 30.10 in 10.0 mi ESE 4.6 mph - N/A   Clear
3:56 PM 73.9 °F - 17.1 °F 12% 30.11 in 10.0 mi ESE 4.6 mph - N/A   Clear
4:56 PM 68.0 °F - 16.0 °F 14% 30.12 in 10.0 mi ENE 4.6 mph - N/A   Clear
5:56 PM 60.1 °F - 15.1 °F 17% 30.14 in 10.0 mi SE 8.1 mph - N/A   Clear
6:56 PM 57.0 °F - 14.0 °F 18% 30.16 in 10.0 mi SW 8.1 mph - N/A   Clear
7:56 PM 51.1 °F - 12.9 °F 22% 30.16 in 10.0 mi South 8.1 mph - N/A   Clear
8:56 PM 50.0 °F - 12.9 °F 23% 30.16 in 10.0 mi SSW 9.2 mph - N/A   Clear
9:56 PM 50.0 °F - 12.9 °F 23% 30.15 in 10.0 mi SW 8.1 mph - N/A   Clear
10:56 PM 46.0 °F 44.8 °F 12.0 °F 25% 30.15 in 10.0 mi SSW 3.5 mph - N/A   Clear
11:56 PM 46.9 °F - 12.9 °F 25% 30.14 in 10.0 mi WSW 4.6 mph - N/A   Clear